Location: Newark
(25.7507°S, 31.4676°E)
Time: 20:38:35
(UTC+00:00)

Hubble Space Telescope - Pass Details

Date: 29 January 2020
Orbit: 536 x 540 km, 28.5° (Epoch: 23 February)

Event Time Altitude Azimuth Distance (km) Brightness Sun altitude
Rises 17:43:13 0° 268° (W) 2,691 5.6 -12.4°
Reaches altitude 10° 17:45:30 10° 263° (W) 1,800 4.6 -12.9°
Maximum altitude 17:49:38 59° 183° (S) 628 1.2 -13.7°
Enters shadow 17:52:54 15° 106° (ESE) 1,484 2.6 -14.3°
